Regional Weather Roundup
Issued by NWS Sioux Falls, SD

Home | Current Version | Previous Version | Text Only | Print | Product List | Glossary On
Versions: 1 2 3 4 5 6 7 8 9 10 11 12 13 14 15 16 17 18 19 20 21 22 23 24 25 26 27 28 29 30 31 32 33 34 35 36 37 38 39 40 41 42 43 44 45 46 47 48 49 50
000
ASUS43 KFSD 240910
RWRFSD

WEATHER ROUNDUP FOR SE SOUTH DAKOTA/SW MINNESOTA/NW IOWA
NATIONAL WEATHER SERVICE SIOUX FALLS SD
300 AM CST TUE JAN 24 2017

NOTE: "FAIR" INDICATES FEW OR NO CLOUDS BELOW 12,000 FEET WITH NO
SIGNIFICANT WEATHER AND OR OBSTRUCTIONS TO VISIBILITY.


SDZ038>040-050-052>070-241000-
SOUTHEAST SOUTH DAKOTA

CITY           SKY/WX    TMP DP  RH WIND       PRES   REMARKS
BROOKINGS      CLOUDY    30  28  92 E5        29.80R WCI  25
CHAMBERLAIN    CLOUDY    32  31  97 E6        29.74S FOG     WCI  26
HURON          CLOUDY    31  29  92 NE7       29.80S WCI  24
MADISON        CLOUDY    28  28 100 SE8         N/A  WCI  20
MITCHELL       CLOUDY    32  30  92 E8        29.79S WCI  25
SIOUX FALLS    CLOUDY    32  30  92 SE8       29.80S WCI  25
WINNER         CLOUDY    31  29  92 E8        29.71S FOG     WCI  23
YANKTON        CLOUDY    30  27  86 E7        29.78S WCI  23
$$

MNZ071-072-080-081-089-090-097-098-241000-
SOUTHWEST MINNESOTA

CITY           SKY/WX    TMP DP  RH WIND       PRES   REMARKS
FAIRMONT       CLOUDY    31  29  92 N3        29.86R
JACKSON        CLOUDY    30  28  93 E5        29.83S WCI  25
LUVERNE        CLOUDY    30  28  93 SE5       29.81S WCI  25
MARSHALL       CLOUDY    31  28  89 E5        29.84F WCI  26
MONTEVIDEO     CLOUDY    30  30 100 CALM      29.89R
PIPESTONE      CLOUDY    30  30 100 SE3       29.79S
REDWOOD FALLS  CLOUDY    32  27  81 CALM      29.86R
TRACY          CLOUDY    32  29  90 SE5       29.84R WCI  27
WINDOM         CLOUDY    30  28  93 CALM      29.83S
$$

IAZ001>003-012>014-020>022-031-032-NEZ013-014-SDZ071-241000-
NORTHWEST IOWA

CITY           SKY/WX    TMP DP  RH WIND       PRES   REMARKS
CHEROKEE       CLOUDY    31  30  96 SE8       29.83R WCI  24
DENISON        CLOUDY    30  28  93 SE8       29.81R WCI  23
ESTHERVILLE    CLOUDY    30  30 100 SE3       29.83S
LE MARS        CLOUDY    32  30  93 SE10      29.82R WCI  24
ORANGE CITY    CLOUDY    30  30 100 SE5       29.80S WCI  25
SHELDON        CLOUDY    32  32 100 SE7       29.80S WCI  26
SIOUX CITY     CLOUDY    32  29  88 SE12      29.81R WCI  23
SPENCER        CLOUDY    32  30  92 SE7       29.83R WCI  26
STORM LAKE     CLOUDY    30  28  93 E8        29.82R WCI  23
$$

ABBREVIATIONS USED IN REMARKS
   TC - TEMPERATURE IN CELSIUS
  WCI - WIND CHILL INDEX
   HX - HEAT INDEX
  VSB - VISIBILITY




USA.gov is the U.S. government's official web portal to all federal, state and local government web resources and services.